Location: Oriwa
(40.7500°S, 175.3333°E)
Time: 14:09:12
(UTC+00:00)

Cosmos 2369 Rocket - Pass Details

Date: 03 February 2023
Orbit: 829 x 852 km, 71.0° (Epoch: 30 March)

Event Time Altitude Azimuth Distance (km) Brightness Sun altitude
Exits shadow 14:04:35 46° 238° (WSW) 1,139 2.8 -28.9°
Drops below altitude 10° 14:10:02 10° 168° (SSE) 2,511 5.6 -28.4°
Sets 14:12:38 0° 161° (SSE) 3,455 6.6 -28.2°
